Wind_Speed
17 15 14 13 12 10 9 7 9 8 9 11 12 15 17 18 18 17 17 15 15 14 12 10 9 8 7 6 5 5 4 3 3 3 2 2 2 2 1 1 2 2 2
15 15 14 13 12 11 10 7 6 8 9 12 12 14 15 17 17 18 18 17 15 14 13 12 11 9 8 7 6 6 5 4 4 4 3 3 3 3 2 2 2 2 2
13 14 14 13 11 10 8 7 5 6 9 12 13 13 14 15 16 17 18 17 16 15 15 14 13 11 10 9 8 7 6 5 5 5 4 4 3 3 3 3 2 2 1
12 12 13 13 11 9 7 6 5 6 9 11 13 14 14 15 17 17 18 17 17 17 16 15 14 13 12 11 10 9 8 7 7 6 5 4 4 3 3 3 2 2 2
11 12 12 12 10 8 5 5 6 7 8 11 12 14 15 16 17 18 18 18 17 17 17 17 16 15 13 12 11 11 10 9 8 7 6 5 5 4 4 4 4 4 4
11 11 12 12 10 7 5 4 5 7 8 10 12 13 15 16 18 18 19 19 18 18 18 18 17 16 15 14 13 13 12 11 10 9 9 8 7 7 6 6 6 6 6
11 10 11 11 9 7 5 4 4 6 7 10 12 13 14 16 18 19 19 20 20 20 19 19 18 17 16 15 15 15 14 13 12 12 11 10 10 10 9 9 9 9 9
9 10 10 10 9 8 6 5 5 6 8 9 11 12 13 16 17 18 19 19 21 21 20 20 19 18 17 17 17 17 16 15 15 14 14 13 13 13 12 12 12 13 13
7 9 9 10 9 7 6 5 4 4 6 8 11 13 13 15 16 17 18 19 21 21 21 20 20 20 19 19 19 19 18 17 17 17 17 16 16 16 16 16 16 16 17
5 6 8 9 9 8 7 6 4 4 5 7 9 11 13 14 16 18 18 19 21 21 20 20 21 21 20 20 20 20 19 19 19 19 19 19 20 19 19 19 19 19 20
6 7 7 8 9 8 7 6 4 4 5 6 8 9 11 12 15 17 18 18 19 20 20 20 20 21 22 22 21 21 21 21 21 21 21 21 22 22 22 22 22 22 22
7 7 7 7 7 8 7 6 4 4 5 6 7 9 11 12 13 15 17 17 17 18 19 20 20 20 21 22 23 23 23 23 23 23 23 23 24 24 24 24 24 24 25
7 8 7 6 7 6 7 6 5 5 5 5 5 8 9 11 11 13 15 16 16 17 19 20 20 20 21 22 23 24 24 24 24 24 24 24 24 24 24 25 26 26 27
9 9 8 7 7 7 7 7 6 5 4 4 5 6 8 9 11 11 13 15 16 17 17 19 19 19 19 21 22 23 24 25 25 24 24 25 25 26 26 26 27 27 28
11 11 11 10 9 8 8 7 6 5 4 5 6 7 8 9 11 11 12 13 14 15 16 17 18 18 19 21 21 22 23 24 25 25 26 26 27 27 28 28 29 30 30
14 15 15 13 11 10 9 9 8 8 7 7 7 8 8 9 10 12 13 14 14 15 16 16 17 18 19 20 21 22 23 24 25 26 27 27 28 29 30 31 32 33 34
19 19 16 14 13 12 12 12 11 10 9 9 9 8 8 9 10 11 12 14 15 14 15 16 17 18 19 20 20 21 23 24 25 27 28 30 31 31 32 33 34 35 36
23 21 19 17 16 15 15 14 13 12 12 11 11 11 11 11 12 12 13 13 14 16 17 18 19 19 20 21 23 25 26 28 29 30 31 32 33 34 35 36 37 38 39
24 25 24 21 20 19 18 17 16 15 15 14 14 13 13 14 14 15 15 15 16 17 18 19 20 21 22 23 25 27 28 30 31 32 33 34 35 36 37 38 39 40 42
28 27 26 24 23 21 20 19 19 18 18 17 17 17 17 17 16 17 18 18 18 20 21 22 23 24 25 26 28 29 31 32 33 34 34 36 37 38 39 41 42 43 45
29 28 27 26 24 23 23 22 22 21 20 20 20 20 20 19 18 19 19 21 21 22 23 24 25 27 29 29 30 32 34 35 35 36 37 38 39 41 42 43 44 46 47
30 30 29 27 25 25 25 24 24 23 22 22 22 23 23 22 22 22 23 24 25 25 26 27 28 29 31 32 33 34 35 36 37 38 39 40 41 42 44 46 47 49 50
31 31 30 29 27 26 26 25 25 25 24 24 24 25 24 24 24 25 25 25 26 27 29 30 30 32 32 33 35 35 36 37 38 39 40 42 43 44 46 47 49 50 51
31 31 30 28 27 26 26 26 26 26 26 25 25 25 25 25 26 26 25 26 27 29 30 30 32 33 34 34 36 36 37 39 40 41 42 43 45 46 48 49 51 52 54
28 28 28 27 26 25 24 25 26 26 27 26 27 26 26 27 27 27 28 29 29 29 30 31 32 32 33 35 37 38 39 41 41 42 43 45 47 48 50 52 53 54 56
25 25 25 24 23 23 23 23 24 25 26 26 26 26 27 27 27 28 29 29 29 29 29 29 30 31 33 36 37 39 41 42 43 44 46 47 49 51 52 53 54 55 56
Wind_Direction
335 337 335 329 324 319 313 306 266 240 227 226 222 219 217 214 209 210 214 216 216 216 216 218 220 222 224 221 214 205 203 208 207 201 194 191 196 204 207 177 181 186 186
336 338 337 334 329 317 305 299 275 244 229 221 218 213 214 212 210 213 216 217 217 216 216 217 219 218 218 215 211 209 208 211 208 197 186 181 183 185 180 175 162 162 167
335 335 339 339 332 324 303 301 280 249 229 220 219 216 216 216 216 214 214 215 214 215 215 216 217 216 214 215 215 214 213 213 210 200 191 184 174 174 177 178 176 177 183
335 336 338 340 335 326 307 295 268 248 230 224 221 219 216 214 211 211 213 214 215 215 215 216 217 217 217 217 218 218 221 221 216 210 206 197 193 192 195 203 215 221 227
336 340 341 341 337 327 306 287 267 247 232 225 220 216 214 212 212 213 214 215 217 218 217 218 219 220 221 221 223 223 227 227 222 221 219 216 216 218 222 230 242 249 253
335 341 344 341 337 330 317 297 271 249 232 221 218 217 213 212 212 214 216 216 217 219 220 220 221 223 224 225 227 229 231 232 231 231 230 229 231 234 237 241 248 256 260
332 341 347 345 344 340 324 301 275 251 233 221 220 219 215 213 214 217 220 219 219 220 221 221 224 226 226 230 232 233 235 238 239 240 241 241 243 246 249 252 256 261 265
337 343 346 346 344 341 328 304 289 261 238 226 221 220 217 215 217 220 221 219 220 223 222 223 225 227 230 233 235 237 240 241 243 245 248 251 253 254 257 261 264 266 266
330 336 342 345 341 335 330 316 302 278 239 228 224 222 221 219 220 218 217 217 219 221 223 227 229 232 234 236 238 239 241 243 246 249 252 256 259 260 262 265 268 269 269
306 324 337 341 343 339 332 321 299 267 238 228 224 221 223 221 219 217 217 218 219 222 225 229 231 234 237 239 240 241 244 246 249 251 255 259 261 263 265 267 269 271 272
301 314 330 335 340 341 334 322 305 268 247 236 224 220 219 220 220 217 215 216 220 224 227 233 235 239 241 242 243 244 247 249 251 254 257 261 264 265 268 269 271 273 275
295 300 312 326 336 342 341 334 306 276 251 233 221 218 220 219 219 218 219 223 224 228 234 236 239 242 243 246 247 247 249 252 254 257 260 263 265 267 269 271 272 274 275
295 296 301 315 328 337 342 341 329 293 262 236 223 218 219 221 223 224 226 227 227 231 236 238 243 246 246 246 248 251 252 254 256 258 261 263 265 266 269 273 274 275 277
296 296 303 309 315 325 335 337 337 319 286 263 235 227 231 232 231 232 231 228 233 236 238 241 244 248 250 249 251 253 255 256 256 258 261 263 266 268 271 273 275 276 277
291 291 296 297 302 308 317 322 314 308 289 272 263 259 252 245 238 240 239 238 237 239 242 244 246 249 249 251 254 255 256 258 259 260 262 264 267 269 272 274 274 275 277
287 284 287 286 287 292 301 305 300 292 287 271 268 268 261 254 250 246 248 247 245 244 246 249 252 254 255 254 256 258 259 262 263 264 265 266 269 272 273 274 275 276 278
286 284 283 277 276 281 288 291 291 287 278 272 267 267 266 263 261 257 254 253 252 251 253 258 262 263 263 261 261 263 264 266 269 269 269 270 271 273 275 276 277 277 279
280 278 277 278 274 273 276 280 281 282 278 274 268 268 270 267 264 262 261 259 260 260 262 264 265 267 268 268 268 269 270 270 271 272 271 271 271 273 274 276 277 278 280
276 276 274 273 272 270 270 274 275 276 275 275 275 272 272 272 269 266 265 270 273 272 272 270 270 271 272 272 271 273 274 274 274 274 273 273 274 274 276 278 279 280 281
276 273 271 272 269 269 268 267 270 272 272 271 273 273 272 277 274 269 270 275 279 279 277 274 274 274 276 277 276 275 276 277 276 275 275 276 277 278 279 280 281 281 281
275 273 272 273 269 267 266 267 269 268 268 269 270 272 272 275 275 276 279 280 280 282 280 278 278 277 277 278 279 278 277 278 276 275 276 278 279 279 280 281 281 282 282
272 272 271 270 268 265 264 266 267 266 266 267 268 271 274 275 277 278 281 282 282 283 280 279 280 281 280 278 278 279 278 278 278 279 279 280 280 280 281 282 283 283 283
273 273 272 269 266 265 264 264 267 269 267 268 270 271 275 276 280 281 281 282 283 283 282 281 282 282 281 280 280 280 280 281 282 282 281 282 282 282 283 283 284 284 284
272 273 272 269 267 266 264 264 265 267 268 271 273 273 275 278 282 283 281 285 285 284 284 284 284 282 279 279 282 283 283 284 284 284 283 283 283 284 285 285 285 285 285
270 269 268 267 265 265 263 261 262 264 265 268 270 274 276 279 280 280 281 283 283 283 282 283 283 282 281 283 284 285 285 285 285 285 285 286 286 286 286 286 286 286 286
267 266 265 263 261 261 261 261 261 263 265 267 270 274 277 278 279 280 281 282 282 281 282 284 285 285 285 286 286 286 287 288 288 288 288 288 288 288 288 287 287 287 288
Height
5857 5855 5852 5849 5846 5844 5842 5842 5842 5842 5845 5847 5850 5853 5855 5858 5861 5864 5866 5869 5871 5874 5875 5877 5878 5879 5880 5880 5881 5881 5881 5881 5881 5881 5881 5881 5881 5881 5880 5880 5880 5880 5880
5856 5853 5850 5847 5844 5842 5840 5840 5840 5841 5843 5846 5848 5850 5852 5854 5857 5860 5864 5866 5869 5871 5873 5875 5876 5877 5878 5879 5879 5880 5881 5881 5881 5881 5881 5881 5881 5881 5881 5881 5880 5880 5880
5854 5851 5849 5846 5843 5841 5840 5839 5840 5840 5842 5843 5845 5847 5849 5852 5855 5858 5861 5863 5866 5868 5870 5872 5874 5875 5876 5877 5878 5879 5880 5880 5880 5880 5881 5881 5881 5881 5881 5881 5880 5880 5880
5853 5850 5847 5844 5842 5840 5839 5839 5839 5839 5840 5841 5843 5845 5847 5849 5852 5855 5858 5860 5862 5865 5867 5869 5871 5873 5874 5875 5876 5877 5878 5878 5879 5879 5880 5880 5880 5880 5881 5881 5880 5880 5880
5851 5848 5846 5843 5841 5839 5838 5838 5837 5838 5838 5839 5841 5843 5845 5847 5849 5852 5854 5857 5860 5862 5864 5867 5869 5870 5872 5873 5875 5876 5876 5877 5877 5878 5878 5879 5879 5879 5880 5880 5880 5880 5879
5848 5846 5844 5841 5839 5838 5836 5836 5836 5836 5836 5837 5839 5840 5842 5844 5846 5849 5851 5854 5857 5859 5862 5864 5866 5868 5869 5871 5872 5873 5874 5875 5875 5876 5877 5877 5878 5878 5878 5878 5878 5878 5878
5845 5843 5842 5840 5838 5836 5835 5834 5834 5834 5834 5835 5836 5838 5839 5841 5843 5846 5848 5851 5853 5856 5858 5861 5863 5864 5866 5868 5869 5870 5871 5872 5873 5874 5874 5875 5875 5876 5876 5876 5876 5876 5876
5843 5842 5841 5839 5836 5835 5833 5832 5832 5831 5831 5832 5834 5835 5837 5839 5841 5843 5845 5847 5850 5853 5855 5857 5859 5861 5863 5864 5866 5867 5868 5869 5870 5870 5871 5872 5872 5873 5873 5873 5873 5873 5873
5842 5841 5839 5838 5836 5834 5832 5830 5829 5829 5829 5829 5831 5832 5834 5836 5837 5839 5841 5844 5847 5849 5851 5853 5856 5857 5859 5860 5862 5863 5864 5865 5866 5866 5867 5868 5868 5869 5869 5869 5869 5869 5869
5840 5839 5837 5836 5834 5833 5831 5829 5828 5827 5827 5827 5828 5830 5831 5833 5834 5836 5838 5840 5843 5846 5847 5849 5852 5853 5855 5856 5857 5859 5859 5860 5861 5862 5863 5863 5864 5864 5864 5864 5864 5864 5864
5838 5837 5836 5835 5833 5831 5829 5827 5826 5826 5826 5826 5827 5828 5829 5830 5831 5833 5835 5837 5839 5842 5844 5845 5847 5849 5850 5851 5852 5853 5854 5855 5856 5857 5857 5858 5858 5858 5858 5858 5858 5858 5857
5835 5835 5834 5833 5832 5830 5828 5826 5825 5825 5825 5825 5825 5826 5827 5828 5829 5831 5833 5834 5836 5838 5840 5841 5843 5844 5845 5846 5847 5848 5849 5850 5851 5851 5852 5852 5852 5852 5852 5851 5851 5851 5850
5834 5834 5833 5831 5830 5829 5827 5826 5824 5824 5824 5823 5824 5824 5825 5826 5827 5828 5829 5831 5833 5834 5835 5837 5838 5839 5840 5840 5841 5842 5843 5844 5845 5845 5845 5845 5846 5845 5845 5844 5844 5843 5843
5832 5832 5831 5830 5829 5828 5826 5825 5824 5823 5823 5823 5823 5824 5824 5824 5825 5826 5827 5828 5829 5830 5831 5832 5833 5834 5835 5836 5836 5837 5838 5838 5839 5839 5839 5839 5839 5839 5838 5837 5836 5835 5835
5829 5829 5829 5828 5827 5826 5825 5824 5823 5822 5822 5822 5822 5822 5822 5822 5823 5824 5824 5825 5826 5827 5828 5828 5829 5829 5830 5831 5831 5832 5832 5833 5833 5833 5832 5832 5832 5831 5830 5829 5828 5827 5826
5824 5825 5825 5825 5825 5824 5823 5822 5821 5821 5821 5820 5820 5820 5820 5820 5820 5821 5821 5822 5822 5823 5823 5824 5825 5825 5825 5826 5826 5826 5827 5827 5826 5826 5826 5825 5824 5823 5822 5821 5820 5819 5817
5820 5821 5821 5821 5821 5821 5820 5819 5819 5819 5818 5818 5818 5818 5818 5818 5818 5818 5818 5818 5819 5819 5820 5820 5820 5821 5821 5821 5821 5821 5821 5820 5820 5819 5818 5817 5816 5815 5814 5812 5811 5809 5807
5815 5815 5816 5816 5816 5816 5816 5815 5815 5815 5815 5815 5815 5814 5815 5815 5815 5815 5814 5814 5815 5815 5815 5815 5815 5815 5815 5815 5815 5815 5814 5813 5812 5811 5810 5809 5807 5806 5805 5803 5801 5799 5797
5807 5808 5809 5810 5810 5810 5810 5810 5810 5811 5811 5811 5811 5811 5811 5811 5811 5810 5810 5810 5811 5811 5810 5810 5810 5809 5809 5809 5808 5807 5806 5805 5804 5803 5801 5800 5798 5796 5794 5792 5790 5788 5785
5800 5800 5801 5802 5802 5802 5803 5804 5804 5805 5805 5806 5806 5806 5806 5806 5806 5806 5806 5805 5805 5805 5804 5804 5803 5803 5802 5801 5800 5799 5798 5796 5795 5793 5792 5790 5788 5786 5783 5781 5778 5775 5772
5792 5793 5793 5794 5794 5795 5796 5797 5797 5798 5799 5799 5800 5800 5800 5800 5800 5800 5800 5799 5799 5798 5797 5797 5796 5795 5794 5793 5792 5790 5788 5787 5785 5783 5781 5779 5777 5774 5771 5768 5765 5762 5758
5784 5785 5786 5786 5787 5788 5789 5790 5790 5791 5792 5792 5792 5793 5793 5793 5793 5793 5793 5792 5792 5791 5790 5789 5788 5786 5785 5784 5782 5780 5778 5777 5775 5773 5770 5767 5765 5762 5759 5755 5752 5748 5744
5775 5776 5777 5777 5778 5779 5781 5782 5783 5783 5783 5784 5785 5786 5786 5786 5786 5786 5785 5785 5784 5783 5782 5780 5779 5777 5776 5774 5773 5771 5768 5766 5764 5761 5758 5755 5752 5749 5745 5741 5737 5733 5729
5766 5767 5767 5768 5770 5772 5774 5775 5776 5777 5777 5778 5779 5779 5780 5779 5779 5779 5778 5777 5776 5775 5773 5772 5770 5768 5766 5764 5762 5760 5758 5755 5752 5749 5746 5743 5739 5735 5731 5726 5722 5717 5713
5758 5758 5759 5760 5762 5764 5765 5767 5768 5770 5770 5771 5771 5772 5772 5772 5771 5771 5770 5769 5768 5766 5765 5763 5761 5759 5757 5755 5752 5750 5747 5744 5740 5736 5733 5729 5724 5720 5716 5711 5706 5701 5696
5751 5750 5752 5753 5754 5756 5758 5760 5761 5762 5763 5763 5764 5764 5764 5764 5764 5763 5761 5760 5759 5757 5755 5754 5752 5750 5747 5744 5742 5738 5735 5731 5727 5723 5719 5714 5709 5705 5700 5694 5689 5684 5678